Regional Weather Roundup
Issued by NWS

Home | Current Version | Previous Version | Graphics & Text | Print | Product List | Glossary On
Versions: 1 2 3 4 5 6 7 8 9 10 11 12 13 14 15 16 17 18 19 20 21 22 23 24 25 26 27 28 29 30 31 32 33 34 35 36 37 38 39 40 41 42 43 44 45 46 47 48 49 50
929
ASUS44 KJAN 161003
RWRMS

MISSISSIPPI HOURLY WEATHER ROUNDUP
NATIONAL WEATHER SERVICE JACKSON MS
500 AM CDT TUE SEP 16 2014

NOTE: "FAIR: INDICATES FEW OR NO CLOUDS BELOW 12,000 FEET WITH NO
SIGNIFICANT WEATHER AND/OR OBSTRUCTIONS TO VISIBILITY.

MSZ001>002-007>008-010>013-018>021-025>028-034>036-161100-
NORTHWEST MISSISSIPPI

CITY           SKY/WX    TMP DP  RH WIND       PRES   REMARKS
CLARKSDALE     CLOUDY    68  68 100 CALM      30.11F
CLEVELAND      RAIN      70  70  99 NE3       30.09F
GREENWOOD      CLOUDY    71  69  93 CALM      30.09S
GREENVILLE     CLOUDY    71  67  87 CALM      30.10R
GRENADA        CLOUDY    70  68  94 CALM      30.11S
OLIVE BRANCH   CLEAR     66  66 100 CALM      30.11S
OXFORD         FAIR      68  66  94 CALM      30.13S
TUNICA         CLOUDY    70  66  88 CALM      30.11F
$$

MSZ003>006-009-014>017-022>024-029>033-037>039-161100-
NORTHEAST MISSISSIPPI

CITY           SKY/WX    TMP DP  RH WIND       PRES   REMARKS
COLUMBUS AFB   CLOUDY    72  71  97 NW3       30.09R
CORINTH        FOG       66  64  94 CALM      30.10S VSB 1/2
GOLDN TRIANGLE CLOUDY    72  66  83 N5        30.09S
STARKVILLE     FAIR      72  68  88 CALM      30.09S
TUPELO         CLOUDY    73  68  84 CALM      30.10R
$$

MSZ040-058-161100-
CENTRAL MISSISSIPPI

CITY           SKY/WX    TMP DP  RH WIND       PRES   REMARKS
JACKSON INTL   PTCLDY    73  71  93 CALM      30.08S
JACKSON HAWKNS CLEAR     75  69  81 CALM      30.09S
MERIDIAN KEY   PTCLDY    72  71  97 CALM      30.07F
MERIDIAN NAS   MOCLDY    73  71  93 CALM      30.08S
RAYMOND        FAIR      70  64  83 CALM      30.09S HAZE
VICKSBURG      PTCLDY    71  67  87 CALM      30.08S
$$

MSZ059>079-161100-
SOUTH MISSISSIPPI

CITY           SKY/WX    TMP DP  RH WIND       PRES   REMARKS
BROOKHAVEN     FAIR      72  72 100 CALM      30.09F FOG
HATTIESBURG    PTCLDY    74  71  91 CALM      30.07S
MCCOMB         MOCLDY    75  73  93 N3        30.06F
NATCHEZ        MOCLDY    72  70  94 CALM      30.08F
PINE BELT      PTCLDY   N/A N/A N/A CALM      30.07S
$$

MSZ080>082-161100-
COASTAL MISSISSIPPI

CITY           SKY/WX    TMP DP  RH WIND       PRES   REMARKS
BILOXI         PTCLDY    76  74  93 N5        30.04F
PASCAGOULA     FOG       74  73  97 CALM      30.04S VSB 1
GULFPORT       CLEAR     75  73  93 NW3       30.04S
$$



USA.gov is the U.S. government's official web portal to all federal, state and local government web resources and services.